Location: Losili
(4.4086°N, 32.7049°E)
Time: 19:52:54
(UTC+00:00)

Cosmos 2074 Rocket - Pass Details

Date: 18 September 2019
Orbit: 966 x 987 km, 82.9° (Epoch: 22 October)

Event Time Altitude Azimuth Distance (km) Brightness Sun altitude
Rises 16:48:02 0° 3° (N) 3,648 7.0 -16.0°
Reaches altitude 10° 16:50:34 10° 6° (N) 2,700 6.3 -16.6°
Maximum altitude 16:56:40 63° 87° (E) 1,068 3.9 -18.1°
Drops below altitude 10° 17:02:46 10° 167° (SSE) 2,702 6.2 -19.6°
Sets 17:05:18 0° 170° (S) 3,650 6.9 -20.3°
